Location: Newark
(62.2411°N, 25.7465°E)
Time: 10:56:17
(UTC+00:00)

Envisat - Visible Passes

Search period start: 16 December 2019 00:00
Search period end: 26 December 2019 00:00
Orbit: 764 x 766 km, 98.1° (Epoch: 16 December)

Date Brightness Start Highest point End Pass type
(mag) Time Alt. Az. Time Alt. Az. Time Alt. Az.
16 Dec 5.2 04:14:20 10° NNE 04:18:40 27° E 04:22:58 10° SSE visible
16 Dec 3.0 05:53:09 10° NNE 05:58:17 81° WNW 06:03:23 10° SSW visible
16 Dec 3.8 14:01:48 10° ESE 14:06:06 28° NE 14:10:25 10° N visible
16 Dec 3.0 15:39:36 10° SSE 15:44:42 89° WSW 15:49:50 10° NNW visible
16 Dec 5.3 17:20:23 10° SW 17:24:27 24° W 17:28:32 10° NW visible
17 Dec 5.9 03:38:09 10° NE 03:41:21 17° E 03:44:34 10° ESE visible
17 Dec 3.5 05:16:21 10° NNE 05:21:26 63° ESE 05:26:29 10° S visible
17 Dec 3.0 15:02:59 10° SE 15:07:58 58° ENE 15:12:58 10° NNW visible
17 Dec 4.4 16:42:31 10° SSW 16:47:16 38° W 16:52:02 10° NNW visible
18 Dec 4.5 04:39:40 10° NNE 04:44:26 38° E 04:49:10 10° SSE visible
18 Dec 3.1 06:18:43 10° NNE 06:23:44 58° WNW 06:28:43 10° SW visible
18 Dec 3.5 14:26:44 10° ESE 14:31:23 37° NE 14:36:03 10° N visible
18 Dec 3.4 16:05:12 10° S 16:10:16 64° WSW 16:15:21 10° NNW visible
18 Dec 5.8 17:47:06 10° WSW 17:50:20 17° W 17:53:34 10° NW visible
19 Dec 5.4 04:03:10 10° NE 04:07:15 23° E 04:11:18 10° SE visible
19 Dec 3.0 05:41:51 10° NNE 05:47:00 88° ESE 05:52:06 10° SSW visible
19 Dec 4.0 13:50:48 10° E 13:54:56 26° NE 13:59:04 10° N visible
19 Dec 2.9 15:28:19 10° SSE 15:33:25 80° ENE 15:38:33 10° NNW visible
19 Dec 5.0 17:08:43 10° SSW 17:13:01 27° W 17:17:22 10° NNW visible
20 Dec 6.0 03:27:11 10° NE 03:29:53 14° ENE 03:32:34 10° ESE visible
20 Dec 3.8 05:05:05 10° NNE 05:10:06 54° E 05:15:05 10° S visible
20 Dec 3.1 14:51:49 10° SE 14:56:43 50° ENE 15:01:39 10° NNW visible
20 Dec 4.1 16:31:02 10° S 16:35:53 44° W 16:40:48 10° NNW visible
20 Dec 6.1 18:14:38 10° W 18:16:18 11° WNW 18:17:59 10° NW visible
21 Dec 4.8 04:28:26 10° NNE 04:33:03 33° E 04:37:37 10° SSE visible
21 Dec 3.0 06:07:24 10° NNE 06:12:29 67° WNW 06:17:31 10° SSW visible
21 Dec 3.6 14:15:40 10° ESE 14:20:11 33° NE 14:24:42 10° N visible
21 Dec 3.2 15:53:51 10° SSE 15:58:56 74° WSW 16:04:04 10° NNW visible
21 Dec 5.6 17:35:14 10° SW 17:38:52 19° W 17:42:31 10° NW visible
22 Dec 5.6 03:52:02 10° NE 03:55:49 20° E 03:59:33 10° SE visible
22 Dec 3.2 05:30:34 10° NNE 05:35:42 77° ESE 05:40:48 10° SSW visible
22 Dec 2.9 15:17:05 10° SSE 15:22:08 70° ENE 15:27:14 10° NNW visible
22 Dec 4.8 16:57:06 10° SSW 17:01:37 31° W 17:06:10 10° NNW visible
23 Dec 6.1 03:16:23 10° NE 03:18:23 12° ENE 03:20:23 10° E visible
23 Dec 4.1 04:53:49 10° NNE 04:58:45 47° E 05:03:39 10° S visible
23 Dec 3.2 06:32:59 10° NNE 06:37:53 48° WNW 06:42:46 10° SW visible
23 Dec 3.3 14:40:41 10° SE 14:45:29 44° ENE 14:50:19 10° NNW visible
23 Dec 3.8 16:19:35 10° S 16:24:32 52° W 16:29:32 10° NNW visible
23 Dec 6.0 18:02:19 10° WSW 18:04:49 14° WNW 18:07:18 10° NW visible
24 Dec 5.1 04:17:14 10° NNE 04:21:38 28° E 04:26:01 10° SSE visible
24 Dec 3.0 05:56:06 10° NNE 06:01:13 77° WNW 06:06:18 10° SSW visible
24 Dec 3.8 14:04:37 10° ESE 14:08:59 30° NE 14:13:22 10° N visible
24 Dec 3.0 15:42:31 10° SSE 15:47:38 85° WSW 15:52:46 10° NNW visible
24 Dec 5.4 17:23:28 10° SW 17:27:25 22° W 17:31:24 10° NW visible
25 Dec 5.8 03:40:58 10° NE 03:44:21 18° E 03:47:44 10° SE visible
25 Dec 3.4 05:19:17 10° NNE 05:24:23 67° ESE 05:29:27 10° S visible
25 Dec 3.0 15:05:52 10° SE 15:10:53 61° ENE 15:15:55 10° NNW visible
25 Dec 4.5 16:45:32 10° SSW 16:50:13 36° W 16:54:57 10° NNW visible
